Hourly Data Report for August 23, 2006

TORONTO CITY
ONTARIO

43°40'00.000" N
79°24'00.000" W
112.50 m
6158355
71508
XTO

Download Data

Hourly Data (August 2006)
Hourly Data Report for August 23, 2006
TIME
LST
Temp Definition
°C
Dew Point Definition
°C
Rel Hum Definition
%
Precip. Amount Definition
mm

Wind Dir Definition
10's deg

Wind Spd Definition
km/h
Visibility Definition
km
Stn Press Definition
kPa
Hmdx Definition


Wind Chill Definition


Weather Definition


00:00 18.3 9.8 58   LegendMM LegendMM   100.39     LegendNANA
01:00 18.1 10.0 59   LegendMM LegendMM   100.39     LegendNANA
02:00 18.2 9.5 57   LegendMM LegendMM   100.37     LegendNANA
03:00 17.6 9.3 58   LegendMM LegendMM   100.34     LegendNANA
04:00 17.3 9.2 59   LegendMM LegendMM   100.32     LegendNANA
05:00 16.4 10.1 66   LegendMM LegendMM   100.32     LegendNANA
06:00 17.1 10.5 65   LegendMM LegendMM   100.39     LegendNANA
07:00 17.9 11.8 67   LegendMM LegendMM   100.38     LegendNANA
08:00 20.0 11.0 56   LegendMM LegendMM   100.38     LegendNANA
09:00 21.8 11.7 53   LegendMM LegendMM   100.37     LegendNANA
10:00 23.3 12.2 50   LegendMM LegendMM   100.37 26   LegendNANA
11:00 24.3 9.6 39   LegendMM LegendMM   100.37 25   LegendNANA
12:00 25.4 8.8 35   LegendMM LegendMM   100.31 26   LegendNANA
13:00 23.9 13.8 53   LegendMM LegendMM   100.29 27   LegendNANA
14:00 22.7 13.1 55   LegendMM LegendMM   100.27 26   LegendNANA
15:00 24.5 13.0 49   LegendMM LegendMM   100.19 27   LegendNANA
16:00 23.1 12.2 50   LegendMM LegendMM   100.13 25   LegendNANA
17:00 22.4 11.8 51   LegendMM LegendMM   100.14 25   LegendNANA
18:00 20.6 13.2 63   LegendMM LegendMM   100.20     LegendNANA
19:00 19.7 12.2 62   LegendMM LegendMM   100.16     LegendNANA
20:00 19.2 12.8 66   LegendMM LegendMM   100.18     LegendNANA
21:00 18.5 13.2 71   LegendMM LegendMM   100.21     LegendNANA
22:00 18.0 13.7 76   LegendMM LegendMM   100.18     LegendNANA
23:00 17.6 14.3 81   LegendMM LegendMM   100.18     LegendNANA

Notes on Data Quality.

Legend

  • E = Estimated
  • M = Missing
  • NA = Not Available*
  • [empty] = Indicates an unobserved value
Date modified: